Time,TemperatureF,DewpointF,PressureIn,WindDirection,WindDirectionDegrees,WindSpeedMPH,WindSpeedGustMPH,Humidity,HourlyPrecipIn,Conditions,Clouds,dailyrainin,SoftwareType,DateUTC
2013-09-04 00:13:00,55.4,54.8,29.96,ESE,112,0.0,-999.0,98,-99.99,,,0.00,Acu-Link.com,2013-09-04 07:13:00,
2013-09-04 00:28:00,55.4,54.8,29.97,East,90,0.0,-999.0,98,-99.99,,,0.00,Acu-Link.com,2013-09-04 07:28:00,
2013-09-04 00:44:00,55.4,54.8,29.97,ENE,67,0.0,-999.0,98,-99.99,,,0.00,Acu-Link.com,2013-09-04 07:44:00,
2013-09-04 00:59:00,55.4,54.8,29.97,NNE,22,0.0,-999.0,98,-99.99,,,0.00,Acu-Link.com,2013-09-04 07:59:00,
2013-09-04 01:15:00,55.4,54.8,29.97,North,0,0.0,-999.0,98,-99.99,,,0.00,Acu-Link.com,2013-09-04 08:15:00,
2013-09-04 01:30:00,55.4,54.8,29.97,SW,225,0.0,-999.0,98,-99.99,,,0.00,Acu-Link.com,2013-09-04 08:30:00,
2013-09-04 01:45:00,55.4,54.8,29.98,North,0,0.0,-999.0,98,-99.99,,,0.00,Acu-Link.com,2013-09-04 08:45:00,
2013-09-04 02:00:00,55.4,54.8,29.98,East,90,0.0,-999.0,98,-99.99,,,0.00,Acu-Link.com,2013-09-04 09:00:00,
2013-09-04 02:15:00,55.4,54.8,29.98,ENE,67,0.0,-999.0,98,-99.99,,,0.00,Acu-Link.com,2013-09-04 09:15:00,
2013-09-04 02:31:00,55.4,54.8,29.98,SE,135,0.0,-999.0,98,-99.99,,,0.00,Acu-Link.com,2013-09-04 09:31:00,
2013-09-04 02:46:00,55.4,54.8,29.98,ENE,67,0.0,-999.0,98,-99.99,,,0.00,Acu-Link.com,2013-09-04 09:46:00,
2013-09-04 03:01:00,53.6,53.0,29.99,ENE,67,0.0,-999.0,98,-99.99,,,0.00,Acu-Link.com,2013-09-04 10:01:00,
2013-09-04 03:16:00,53.6,53.0,29.98,NNE,22,0.0,-999.0,98,-99.99,,,0.00,Acu-Link.com,2013-09-04 10:16:00,
2013-09-04 03:31:00,53.6,53.0,29.99,NE,45,0.0,-999.0,98,-99.99,,,0.00,Acu-Link.com,2013-09-04 10:31:00,
2013-09-04 03:47:00,53.6,53.0,29.99,NE,45,0.0,-999.0,98,-99.99,,,0.00,Acu-Link.com,2013-09-04 10:47:00,
2013-09-04 04:02:00,53.6,53.0,29.99,NNW,337,0.0,-999.0,98,-99.99,,,0.00,Acu-Link.com,2013-09-04 11:02:00,
2013-09-04 04:17:00,51.8,51.3,29.99,NNW,337,0.0,-999.0,98,-99.99,,,0.00,Acu-Link.com,2013-09-04 11:17:00,
2013-09-04 04:32:00,51.8,51.3,29.99,NE,45,0.0,-999.0,98,-99.99,,,0.00,Acu-Link.com,2013-09-04 11:32:00,
2013-09-04 04:47:00,51.8,51.3,30.00,WSW,247,0.0,-999.0,98,-99.99,,,0.00,Acu-Link.com,2013-09-04 11:47:00,
2013-09-04 05:02:00,51.8,51.3,30.00,ENE,67,0.0,-999.0,98,-99.99,,,0.00,Acu-Link.com,2013-09-04 12:02:00,
2013-09-04 05:17:00,51.8,51.3,30.00,East,90,0.0,-999.0,98,-99.99,,,0.00,Acu-Link.com,2013-09-04 12:17:00,
2013-09-04 05:32:00,51.8,51.3,30.00,ENE,67,0.0,-999.0,98,-99.99,,,0.00,Acu-Link.com,2013-09-04 12:32:00,
2013-09-04 05:47:00,51.8,51.3,30.01,SE,135,0.0,-999.0,98,-99.99,,,0.00,Acu-Link.com,2013-09-04 12:47:00,
2013-09-04 06:02:00,50.0,49.5,30.01,ENE,67,0.0,-999.0,98,-99.99,,,0.00,Acu-Link.com,2013-09-04 13:02:00,
2013-09-04 06:18:00,50.0,49.5,30.01,East,90,0.0,-999.0,98,-99.99,,,0.00,Acu-Link.com,2013-09-04 13:18:00,
2013-09-04 06:33:00,50.0,49.5,30.02,East,90,0.0,-999.0,98,-99.99,,,0.00,Acu-Link.com,2013-09-04 13:33:00,
2013-09-04 06:48:00,50.0,49.5,30.02,ENE,67,0.0,-999.0,98,-99.99,,,0.00,Acu-Link.com,2013-09-04 13:48:00,
2013-09-04 07:03:00,50.0,49.5,30.02,SSE,157,0.0,-999.0,98,-99.99,,,0.00,Acu-Link.com,2013-09-04 14:03:00,
2013-09-04 07:18:00,50.0,49.5,30.02,SSE,157,0.0,-999.0,98,-99.99,,,0.00,Acu-Link.com,2013-09-04 14:18:00,
2013-09-04 07:33:00,50.0,49.5,30.03,ENE,67,0.0,-999.0,98,-99.99,,,0.00,Acu-Link.com,2013-09-04 14:33:00,
2013-09-04 07:48:00,50.0,49.5,30.02,ESE,112,0.0,-999.0,98,-99.99,,,0.00,Acu-Link.com,2013-09-04 14:48:00,
2013-09-04 08:03:00,51.8,51.3,30.03,ESE,112,0.0,-999.0,98,-99.99,,,0.01,Acu-Link.com,2013-09-04 15:03:00,
2013-09-04 08:18:00,51.8,51.3,30.02,SW,225,0.0,-999.0,98,-99.99,,,0.01,Acu-Link.com,2013-09-04 15:18:00,
2013-09-04 08:33:00,53.6,53.0,30.02,WSW,247,0.0,-999.0,98,-99.99,,,0.01,Acu-Link.com,2013-09-04 15:33:00,
2013-09-04 08:48:00,53.6,53.0,30.02,West,270,0.0,-999.0,98,-99.99,,,0.01,Acu-Link.com,2013-09-04 15:48:00,
2013-09-04 09:04:00,53.6,53.0,30.03,SSE,157,0.0,-999.0,98,-99.99,,,0.01,Acu-Link.com,2013-09-04 16:04:00,
2013-09-04 09:19:00,55.4,54.8,30.03,West,270,0.0,-999.0,98,-99.99,,,0.01,Acu-Link.com,2013-09-04 16:19:00,
2013-09-04 09:34:00,55.4,54.8,30.03,WSW,247,0.0,-999.0,98,-99.99,,,0.01,Acu-Link.com,2013-09-04 16:34:00,
2013-09-04 09:49:00,55.4,54.8,30.03,SW,225,0.0,-999.0,98,-99.99,,,0.01,Acu-Link.com,2013-09-04 16:49:00,
2013-09-04 10:04:00,57.2,56.6,30.03,NW,315,0.0,-999.0,98,-99.99,,,0.01,Acu-Link.com,2013-09-04 17:04:00,
2013-09-04 10:19:00,59.0,58.4,30.04,West,270,0.0,-999.0,98,-99.99,,,0.01,Acu-Link.com,2013-09-04 17:19:00,
2013-09-04 10:34:00,60.8,60.2,30.04,NW,315,0.0,-999.0,98,-99.99,,,0.01,Acu-Link.com,2013-09-04 17:34:00,
2013-09-04 10:50:00,60.8,60.2,30.05,NW,315,0.0,-999.0,98,-99.99,,,0.01,Acu-Link.com,2013-09-04 17:50:00,
2013-09-04 11:05:00,62.6,62.0,30.04,West,270,0.0,-999.0,98,-99.99,,,0.01,Acu-Link.com,2013-09-04 18:05:00,
2013-09-04 11:20:00,62.6,60.2,30.04,North,0,0.0,-999.0,92,-99.99,,,0.01,Acu-Link.com,2013-09-04 18:20:00,
2013-09-04 11:35:00,62.6,62.0,30.04,NNW,337,0.0,-999.0,98,-99.99,,,0.01,Acu-Link.com,2013-09-04 18:35:00,
2013-09-04 11:50:00,62.6,59.6,30.04,WNW,292,0.0,-999.0,90,-99.99,,,0.01,Acu-Link.com,2013-09-04 18:50:00,
2013-09-04 12:05:00,64.4,61.1,30.04,North,0,0.0,-999.0,89,-99.99,,,0.01,Acu-Link.com,2013-09-04 19:05:00,
2013-09-04 12:20:00,62.6,59.3,30.04,NNW,337,0.0,-999.0,89,-99.99,,,0.01,Acu-Link.com,2013-09-04 19:20:00,
2013-09-04 12:36:00,62.6,59.0,30.04,West,270,0.0,-999.0,88,-99.99,,,0.01,Acu-Link.com,2013-09-04 19:36:00,
2013-09-04 12:51:00,64.4,59.8,30.04,WNW,292,0.0,-999.0,85,-99.99,,,0.01,Acu-Link.com,2013-09-04 19:51:00,
2013-09-04 13:06:00,68.0,61.2,30.03,West,270,0.0,-999.0,79,-99.99,,,0.01,Acu-Link.com,2013-09-04 20:06:00,
2013-09-04 13:21:00,68.0,61.2,30.03,SW,225,0.0,-999.0,79,-99.99,,,0.01,Acu-Link.com,2013-09-04 20:21:00,
2013-09-04 13:36:00,68.0,59.8,30.03,ESE,112,0.0,-999.0,75,-99.99,,,0.01,Acu-Link.com,2013-09-04 20:36:00,
2013-09-04 13:52:00,71.6,62.5,30.03,WSW,247,0.0,-999.0,73,-99.99,,,0.01,Acu-Link.com,2013-09-04 20:52:00,
2013-09-04 14:07:00,71.6,60.9,30.02,ESE,112,0.0,-999.0,69,-99.99,,,0.01,Acu-Link.com,2013-09-04 21:07:00,
2013-09-04 14:22:00,71.6,61.3,30.02,SSW,202,0.0,-999.0,70,-99.99,,,0.01,Acu-Link.com,2013-09-04 21:22:00,
2013-09-04 14:37:00,69.8,57.1,30.01,North,0,0.0,-999.0,64,-99.99,,,0.01,Acu-Link.com,2013-09-04 21:37:00,
2013-09-04 14:52:00,69.8,58.3,30.01,West,270,0.0,-999.0,67,-99.99,,,0.01,Acu-Link.com,2013-09-04 21:52:00,
2013-09-04 15:07:00,71.6,57.4,30.01,West,270,0.0,-999.0,61,-99.99,,,0.01,Acu-Link.com,2013-09-04 22:07:00,
2013-09-04 15:23:00,73.4,58.7,30.01,NNE,22,0.0,-999.0,60,-99.99,,,0.01,Acu-Link.com,2013-09-04 22:23:00,
2013-09-04 15:38:00,75.2,58.4,30.00,ENE,67,0.0,-999.0,56,-99.99,,,0.01,Acu-Link.com,2013-09-04 22:38:00,
2013-09-04 15:53:00,75.2,58.4,30.00,East,90,0.0,-999.0,56,-99.99,,,0.01,Acu-Link.com,2013-09-04 22:53:00,
2013-09-04 16:08:00,75.2,56.9,29.98,West,270,0.0,-999.0,53,-99.99,,,0.01,Acu-Link.com,2013-09-04 23:08:00,
2013-09-04 16:23:00,77.0,56.4,29.98,ENE,67,0.0,-999.0,49,-99.99,,,0.01,Acu-Link.com,2013-09-04 23:23:00,
2013-09-04 16:38:00,78.8,55.6,29.97,West,270,0.0,-999.0,45,-99.99,,,0.01,Acu-Link.com,2013-09-04 23:38:00,
2013-09-04 16:53:00,77.0,54.6,29.97,West,270,0.0,-999.0,46,-99.99,,,0.01,Acu-Link.com,2013-09-04 23:53:00,
2013-09-04 17:08:00,77.0,55.8,29.96,ENE,67,0.0,-999.0,48,-99.99,,,0.01,Acu-Link.com,2013-09-05 00:08:00,
2013-09-04 17:23:00,77.0,53.4,29.96,NNW,337,0.0,-999.0,44,-99.99,,,0.01,Acu-Link.com,2013-09-05 00:23:00,
2013-09-04 17:39:00,80.6,52.6,29.96,SSE,157,0.0,-999.0,38,-99.99,,,0.01,Acu-Link.com,2013-09-05 00:39:00,
2013-09-04 17:54:00,80.6,53.3,29.95,SSW,202,0.0,-999.0,39,-99.99,,,0.01,Acu-Link.com,2013-09-05 00:54:00,
2013-09-04 18:09:00,78.8,52.4,29.95,SE,135,0.0,-999.0,40,-99.99,,,0.01,Acu-Link.com,2013-09-05 01:09:00,
2013-09-04 18:24:00,77.0,56.4,29.95,SSE,157,0.0,-999.0,49,-99.99,,,0.01,Acu-Link.com,2013-09-05 01:24:00,
2013-09-04 18:39:00,73.4,51.3,29.95,NE,45,0.0,-999.0,46,-99.99,,,0.01,Acu-Link.com,2013-09-05 01:39:00,
2013-09-04 18:54:00,73.4,53.1,29.95,NE,45,0.0,-999.0,49,-99.99,,,0.01,Acu-Link.com,2013-09-05 01:54:00,
2013-09-04 19:10:00,71.6,52.5,29.95,NE,45,0.0,-999.0,51,-99.99,,,0.01,Acu-Link.com,2013-09-05 02:10:00,
2013-09-04 19:25:00,68.0,51.2,29.95,NNE,22,0.0,-999.0,55,-99.99,,,0.01,Acu-Link.com,2013-09-05 02:25:00,
2013-09-04 19:40:00,66.2,53.2,29.95,NE,45,0.0,-999.0,63,-99.99,,,0.01,Acu-Link.com,2013-09-05 02:40:00,
2013-09-04 19:55:00,64.4,54.4,29.96,NE,45,0.0,-999.0,70,-99.99,,,0.01,Acu-Link.com,2013-09-05 02:55:00,
2013-09-04 20:10:00,64.4,55.2,29.96,SE,135,0.0,-999.0,72,-99.99,,,0.01,Acu-Link.com,2013-09-05 03:10:00,
2013-09-04 20:25:00,62.6,54.2,29.96,NE,45,0.0,-999.0,74,-99.99,,,0.01,Acu-Link.com,2013-09-05 03:25:00,
2013-09-04 20:40:00,62.6,53.8,29.97,NE,45,0.0,-999.0,73,-99.99,,,0.01,Acu-Link.com,2013-09-05 03:40:00,
2013-09-04 20:55:00,62.6,54.2,29.98,NNE,22,0.0,-999.0,74,-99.99,,,0.01,Acu-Link.com,2013-09-05 03:55:00,
2013-09-04 21:10:00,60.8,52.5,29.98,North,0,0.0,-999.0,74,-99.99,,,0.01,Acu-Link.com,2013-09-05 04:10:00,
2013-09-04 21:25:00,60.8,54.2,29.98,NNE,22,0.0,-999.0,79,-99.99,,,0.01,Acu-Link.com,2013-09-05 04:25:00,
2013-09-04 21:40:00,60.8,55.3,29.98,NE,45,0.0,-999.0,82,-99.99,,,0.01,Acu-Link.com,2013-09-05 04:40:00,
2013-09-04 21:56:00,59.0,53.8,29.98,ENE,67,0.0,-999.0,83,-99.99,,,0.01,Acu-Link.com,2013-09-05 04:56:00,
2013-09-04 22:11:00,59.0,54.2,29.99,East,90,0.0,-999.0,84,-99.99,,,0.01,Acu-Link.com,2013-09-05 05:11:00,
2013-09-04 22:26:00,57.2,52.4,29.99,NNE,22,0.0,-999.0,84,-99.99,,,0.01,Acu-Link.com,2013-09-05 05:26:00,
2013-09-04 22:41:00,55.4,51.0,30.00,NNE,22,0.0,-999.0,85,-99.99,,,0.01,Acu-Link.com,2013-09-05 05:41:00,
2013-09-04 22:56:00,55.4,51.3,30.00,NNE,22,0.0,-999.0,86,-99.99,,,0.01,Acu-Link.com,2013-09-05 05:56:00,
2013-09-04 23:11:00,55.4,51.3,30.00,ENE,67,0.0,-999.0,86,-99.99,,,0.01,Acu-Link.com,2013-09-05 06:11:00,
2013-09-04 23:26:00,55.4,51.6,30.01,SE,135,0.0,-999.0,87,-99.99,,,0.01,Acu-Link.com,2013-09-05 06:26:00,
2013-09-04 23:41:00,55.4,51.6,30.01,ESE,112,0.0,-999.0,87,-99.99,,,0.01,Acu-Link.com,2013-09-05 06:41:00,
2013-09-04 23:56:00,53.6,50.4,30.01,North,0,0.0,-999.0,89,-99.99,,,0.01,Acu-Link.com,2013-09-05 06:56:00,